Current Version              Previous Version:    01  02  03  04  05  06  07  08  09  10  11  12  13  14  15  16  17  18  19  20  21  22  23  24  25  26  27  28  29  30  
   31  32  33  34  35  36  37  38  39  40  41  42  43  44  45  46  47  48  49  50  51  52  53  54  55  56  57  58  59  60  

[Printable]
246
ASUS44 KFWD 310315
RWRTX
NORTH TEXAS HOURLY WEATHER ROUNDUP
NATIONAL WEATHER SERVICE FORT WORTH TX
900 PM CST FRI JAN 30 2015

NOTE: "FAIR" INDICATES FEW OR NO CLOUDS BELOW 12,000 FEET WITH NO
SIGNIFICANT WEATHER AND/OR OBSTRUCTIONS TO VISIBILITY.

TXZ118-119-310400-
DALLAS/FORT WORTH METROPLEX

CITY           SKY/WX    TMP DP  RH WIND       PRES   REMARKS
DFW AIRPORT    CLOUDY    53  28  38 E8        30.33R
DALLAS LOVE    CLOUDY    54  29  38 E10       30.34R
FTW MEACHAM    CLOUDY    54  31  41 E7        30.32S
DAL-EXECUTIVE  CLOUDY    54  29  38 E8        30.33R
FTW-ALLIANCE   CLOUDY    52  30  43 E6        30.32F
FTW-SPINKS     CLOUDY    52  32  46 CALM      30.34F
ARLINGTON      CLOUDY    54  29  38 E6        30.33S
GRAND PRAIRIE  CLOUDY   N/A N/A N/A E7        30.35S
ADDISON        CLOUDY    54  27  35 E8        30.34R
MESQUITE       CLOUDY    51  31  45 E5        30.35R
LANCASTER      CLOUDY    51  30  46 E8        30.35S
$$

TXZ091>094-102>105-117-120-121-131>134-310400-
NORTH CENTRAL TEXAS

CITY           SKY/WX    TMP DP  RH WIND       PRES   REMARKS
SHRMAN/DENISON CLOUDY    50  34  53 E3        30.36S
GAINESVILLE    CLOUDY    49  32  51 E5        30.36S
BOWIE          CLOUDY    48  33  56 E5        30.32F
BRIDGEPORT     CLOUDY    50  35  56 E3        30.34F
DECATUR        CLOUDY    49  32  51 E7        30.32F
DENTON         CLOUDY    52  30  43 E10       30.33S
MCKINNEY       CLOUDY    50  31  48 E3        30.35R
GREENVILLE     CLOUDY    50  30  46 E5        30.35S
ROCKWALL       CLOUDY    50  32  49 E8        30.33S
TERRELL        CLOUDY    53  31  42 E7        30.35S
WAXAHACHIE     CLOUDY    51  34  53 E5        30.35R
CLEBURNE       CLOUDY    52  32  46 E7        30.33F
GRANBURY       CLOUDY    53  34  49 E3        30.32F
$$

TXZ083>090-098>101-113>116-127>130-139>142-154-155-310400-
WESTERN NORTH TEXAS

CITY           SKY/WX    TMP DP  RH WIND       PRES   REMARKS
WICHITA FALLS  CLOUDY    47  32  56 E7        30.31F
WF-KICKAPOO    CLOUDY   N/A N/A N/A E8        30.32F
VERNON         CLOUDY    46  28  49 E3        30.32F
ABILENE        CLOUDY    46  32  58 SE6       30.29S
ABILENE-DYESS  CLOUDY    47  33  57 E8        30.27F
BRECKENRIDGE   CLOUDY    49  33  52 E3        30.30S
GRAHAM         CLOUDY    49  33  54 CALM      30.29F
MINERAL WELLS  CLOUDY    51  31  46 SE7       30.30F
STEPHENVILLE   CLOUDY    47  34  60 CALM      30.33S
COMANCHE       CLOUDY    46  36  69 SE3       30.30F
BROWNWOOD      CLOUDY    46  34  61 E6        30.31S
COLEMAN        CLOUDY    47  36  64 E8        30.29S
BRADY          PTCLDY    46  36  66 E8        30.26F
$$

TXZ143>147-156>162-174-175-310400-
CENTRAL TEXAS

CITY           SKY/WX    TMP DP  RH WIND       PRES   REMARKS
WACO           CLOUDY    49  36  61 NE3       30.32S
WACO-TSTC      CLEAR     50  36  57 N6        30.33S
WACO-MCGREGOR  CLOUDY    48  34  57 NE5       30.33F
HILLSBORO      CLOUDY    51  33  50 NE5       30.33S
CORSICANA      CLOUDY    53  31  42 E7        30.34R
MEXIA          CLOUDY    52  32  46 E3        30.32R
HEARNE         PTCLDY    50  35  56 CALM      30.33R
CAMERON        MOCLDY    51  37  58 CALM      30.31S
TEMPLE         CLOUDY    48  34  57 N5        30.30F
KILLEEN        CLOUDY    47  38  69 NE5       30.30S
KILLEEN-SKYLRK CLOUDY    48  34  57 NE3       30.29S
FORT HOOD      CLOUDY    49  36  61 N5        30.30S
GATESVILLE     CLOUDY    46  39  76 CALM      30.33F
HAMILTON       CLOUDY    47  35  63 SE5       30.31F
LAMPASAS       CLOUDY    46  37  72 N3        30.29S
$$

TXZ095>097-106>112-122>126-135>138-148>153-164>167-310400-
EAST TEXAS

CITY           SKY/WX    TMP DP  RH WIND       PRES   REMARKS
PARIS          CLOUDY    46  28  49 E7        30.38S
SULPHUR SPRNGS CLOUDY    48  31  51 E5        30.39R
MOUNT PLEASANT MOCLDY    46  31  54 NE6       30.39S
GILMER         MOCLDY    46  32  56 CALM      30.37S
MINEOLA        CLOUDY    45  32  61 CALM      30.36F
TYLER          CLOUDY    52  29  41 E9        30.34F
LONGVIEW       MOCLDY    47  33  58 E5        30.36S
MARSHALL       PTCLDY    47  37  66 CALM      30.39S
ATHENS         CLOUDY    50  30  46 E3        30.34R
PALESTINE      CLOUDY    52  32  46 E7        30.35S
JACKSONVILLE   MOCLDY    49  32  51 MISG      30.36S
HENDERSON      CLOUDY    49  32  51 E5        30.36F
NACOGDOCHES    PTCLDY    48  30  49 E6        30.35F
LUFKIN         CLEAR     47  34  60 E3        30.34F
$$

SUPPLEMENTAL OBSERVATIONS (CENTRAL)

CITY           SKY/WX    TMP DP  RH WIND       PRES   REMARKS
LAKE TEXOMA      N/A     50  32  50 E2          N/A
PAT MAYSE LAKE   N/A     48  30  49 E3          N/A
ATHENS           N/A     52  32  46 E3          N/A
PALESTINE        N/A     48  32  53 SE3         N/A
LAKE LIMESTONE   N/A     52  32  46 E3          N/A
MCGREGOR         N/A     48  36  61 NE1         N/A
TEMPLE           N/A     50  36  57 E3          N/A
$$

SUPPLEMENTAL OBSERVATIONS (WEST)

CITY           SKY/WX    TMP DP  RH WIND       PRES   REMARKS
MILLERS CREEK    N/A     46  32  57 E7          N/A
POSSUM KINGDOM   N/A     48  32  53 SE2         N/A
GRANBURY         N/A     52  32  46 E5          N/A
COMANCHE         N/A     46  32  57 SE5         N/A
HAMBY            N/A     46  32  57 SE3         N/A
$$

SUPPLEMENTAL OBSERVATIONS (EAST)

CITY           SKY/WX    TMP DP  RH WIND       PRES   REMARKS
CLARKSVILLE      N/A     46  30  53 E6          N/A
TEXARKANA        N/A     43  32  65 E1          N/A
LINDEN           N/A     43  32  65 CALM        N/A
CADDO LAKE       N/A     37  34  87 CALM        N/A
GILMER           N/A     48  32  53 E5          N/A
HENDERSON        N/A     50  30  46 E6          N/A
LUFKIN           N/A     43  36  75 MISG        N/A
N SABINE NF      N/A     41  36  81 MISG        N/A
S SABINE NF      N/A     41  37  87 N1          N/A
$$

SUPPLEMENTAL OBSERVATIONS ARE A COLLECTION OF AUTOMATED INSTRUMENTS
THAT ARE MAINTAINED BY A VARIETY OF FEDERAL AND STATE AGENCIES.
CERTAIN ELEMENTS...SUCH AS HUMIDITY VALUES AND SUSTAINED WIND
SPEEDS...MAY BE APPROXIMATED.